| time (UTC) | temp F | wind direction | speed MPH | gust MPH | rain 1hr in | rain 24hr in | rain mn in | humidity % | barometer mb |
| 20260506194304 | 62 | 124 | 0.0 | 1.0 | 0.00 | 0.00 | 0.00 | 32 | 1009.6 |
| 20260506193804 | 62 | 95 | 0.0 | 1.0 | 0.00 | 0.00 | 0.00 | 33 | 1009.7 |
| 20260506193304 | 62 | 81 | 0.0 | 3.0 | 0.00 | 0.00 | 0.00 | 33 | 1009.2 |
| 20260506191805 | 63 | 106 | 0.0 | 1.0 | 0.00 | 0.00 | 0.00 | 32 | 1009.3 |
| 20260506191304 | 64 | 91 | 0.0 | 1.0 | 0.00 | 0.00 | 0.00 | 31 | 1009.5 |
| 20260506190805 | 64 | 73 | 0.0 | 1.0 | 0.00 | 0.00 | 0.00 | 30 | 1009.7 |
| 20260506190305 | 64 | 61 | 0.0 | 1.0 | 0.00 | 0.00 | 0.00 | 29 | 1009.7 |
| 20260506185805 | 65 | 23 | 0.0 | 1.0 | 0.00 | 0.00 | 0.00 | 28 | 1009.8 |
| 20260506185307 | 66 | 313 | 0.0 | 0.0 | 0.00 | 0.00 | 0.00 | 27 | 1009.7 |
| 20260506184805 | 67 | 302 | 0.0 | 0.0 | 0.00 | 0.00 | 0.00 | 27 | 1009.6 |
| 20260506184305 | 66 | 308 | 0.0 | 1.0 | 0.00 | 0.00 | 0.00 | 28 | 1009.7 |
| 20260506183804 | 66 | 311 | 1.0 | 1.0 | 0.00 | 0.00 | 0.00 | 29 | 1009.9 |
| 20260506182805 | 67 | 179 | 1.0 | 2.0 | 0.00 | 0.00 | 0.00 | 26 | 1009.9 |
| 20260506182306 | 67 | 54 | 1.0 | 2.0 | 0.00 | 0.00 | 0.00 | 25 | 1009.8 |
| 20260506181305 | 69 | 234 | 0.0 | 1.0 | 0.00 | 0.00 | 0.00 | 24 | 1009.6 |
| 20260506180804 | 69 | 238 | 1.0 | 1.0 | 0.00 | 0.00 | 0.00 | 24 | 1009.6 |
| 20260506180304 | 67 | 269 | 1.0 | 1.0 | 0.00 | 0.00 | 0.00 | 25 | 1009.7 |
| 20260506175805 | 68 | 48 | 1.0 | 2.0 | 0.00 | 0.00 | 0.00 | 24 | 1009.7 |
| 20260506175306 | 69 | 10 | 1.0 | 2.0 | 0.00 | 0.00 | 0.00 | 24 | 1009.7 |
| 20260506174805 | 68 | 260 | 1.0 | 2.0 | 0.00 | 0.00 | 0.00 | 24 | 1009.8 |
| 20260506174305 | 68 | 250 | 1.0 | 2.0 | 0.00 | 0.00 | 0.00 | 25 | 1010.0 |
| 20260506173804 | 67 | 134 | 1.0 | 2.0 | 0.00 | 0.00 | 0.00 | 25 | 1010.0 |
| 20260506173304 | 68 | 150 | 2.0 | 2.0 | 0.00 | 0.00 | 0.00 | 26 | 1010.2 |
| 20260506172804 | 68 | 119 | 2.0 | 3.0 | 0.00 | 0.00 | 0.00 | 25 | 1010.0 |
| 20260506172307 | 69 | 133 | 2.0 | 3.0 | 0.00 | 0.00 | 0.00 | 25 | 1009.8 |
| 20260506171305 | 68 | 238 | 2.0 | 5.0 | 0.00 | 0.00 | 0.00 | 26 | 1009.8 |
| 20260506170804 | 68 | 191 | 0.0 | 1.0 | 0.00 | 0.00 | 0.00 | 25 | 1009.9 |
| 20260506170304 | 69 | 237 | 1.0 | 2.0 | 0.00 | 0.00 | 0.00 | 25 | 1010.0 |
| 20260506165805 | 70 | 232 | 2.0 | 3.0 | 0.00 | 0.00 | 0.00 | 26 | 1010.0 |
| 20260506165306 | 69 | 197 | 1.0 | 3.0 | 0.00 | 0.00 | 0.00 | 25 | 1010.2 |
| 20260506164805 | 68 | 330 | 1.0 | 5.0 | 0.00 | 0.00 | 0.00 | 28 | 1010.1 |
| 20260506164304 | 68 | 42 | 2.0 | 3.0 | 0.00 | 0.00 | 0.00 | 29 | 1010.4 |
| 20260506163805 | 68 | 13 | 2.0 | 5.0 | 0.00 | 0.00 | 0.00 | 28 | 1010.2 |
| 20260506163304 | 68 | 4 | 2.0 | 3.0 | 0.00 | 0.00 | 0.00 | 28 | 1010.2 |
| 20260506162804 | 69 | 24 | 2.0 | 3.0 | 0.00 | 0.00 | 0.00 | 28 | 1009.9 |
| 20260506162307 | 68 | 310 | 1.0 | 5.0 | 0.00 | 0.00 | 0.00 | 29 | 1010.1 |
| 20260506161805 | 68 | 55 | 2.0 | 3.0 | 0.00 | 0.00 | 0.00 | 30 | 1010.0 |
| 20260506161304 | 68 | 286 | 0.0 | 3.0 | 0.00 | 0.00 | 0.00 | 29 | 1010.2 |
| 20260506160805 | 69 | 165 | 2.0 | 5.0 | 0.00 | 0.00 | 0.00 | 30 | 1010.1 |
| 20260506160305 | 69 | 166 | 2.0 | 5.0 | 0.00 | 0.00 | 0.00 | 30 | 1010.1 |
| 20260506155805 | 68 | 176 | 1.0 | 3.0 | 0.00 | 0.00 | 0.00 | 30 | 1010.2 |
| 20260506155306 | 67 | 243 | 1.0 | 3.0 | 0.00 | 0.00 | 0.00 | 34 | 1010.5 |
| 20260506154304 | 66 | 157 | 2.0 | 3.0 | 0.00 | 0.00 | 0.00 | 33 | 1010.7 |
| 20260506153804 | 66 | 143 | 2.0 | 5.0 | 0.00 | 0.00 | 0.00 | 33 | 1010.4 |
| 20260506152804 | 66 | 169 | 2.0 | 3.0 | 0.00 | 0.00 | 0.00 | 33 | 1010.2 |
| 20260506152306 | 66 | 151 | 2.0 | 7.0 | 0.00 | 0.00 | 0.00 | 34 | 1010.0 |
| 20260506151804 | 67 | 241 | 2.0 | 5.0 | 0.00 | 0.00 | 0.00 | 33 | 1010.2 |
| 20260506151304 | 66 | 238 | 2.0 | 6.0 | 0.00 | 0.00 | 0.00 | 33 | 1010.4 |
| 20260506150305 | 67 | 152 | 3.0 | 5.0 | 0.00 | 0.00 | 0.00 | 32 | 1010.1 |
| 20260506145804 | 68 | 189 | 2.0 | 6.0 | 0.00 | 0.00 | 0.00 | 30 | 1010.0 |
| 20260506145306 | 69 | 189 | 3.0 | 6.0 | 0.00 | 0.00 | 0.00 | 30 | 1010.3 |
| 20260506144804 | 69 | 161 | 3.0 | 6.0 | 0.00 | 0.00 | 0.00 | 29 | 1010.3 |
| 20260506144305 | 69 | 237 | 4.0 | 8.0 | 0.00 | 0.00 | 0.00 | 32 | 1010.4 |
| 20260506143805 | 69 | 205 | 3.0 | 8.0 | 0.00 | 0.00 | 0.00 | 33 | 1010.4 |
| 20260506143305 | 68 | 147 | 3.0 | 8.0 | 0.00 | 0.00 | 0.00 | 33 | 1010.6 |
| 20260506142805 | 69 | 153 | 3.0 | 6.0 | 0.00 | 0.00 | 0.00 | 30 | 1010.6 |
| 20260506141805 | 70 | 205 | 4.0 | 8.0 | 0.00 | 0.00 | 0.00 | 31 | 1010.6 |
| 20260506141305 | 69 | 239 | 2.0 | 10.0 | 0.00 | 0.00 | 0.00 | 30 | 1010.6 |
| 20260506140805 | 69 | 224 | 3.0 | 10.0 | 0.00 | 0.00 | 0.00 | 31 | 1010.7 |
| 20260506140305 | 69 | 229 | 4.0 | 8.0 | 0.00 | 0.00 | 0.00 | 31 | 1010.8 |
| 20260506135804 | 68 | 234 | 4.0 | 8.0 | 0.00 | 0.00 | 0.00 | 29 | 1010.9 |
| 20260506135306 | 68 | 207 | 4.0 | 10.0 | 0.00 | 0.00 | 0.00 | 33 | 1010.8 |
| 20260506134804 | 69 | 212 | 5.0 | 9.0 | 0.00 | 0.00 | 0.00 | 32 | 1010.7 |
| 20260506133305 | 68 | 201 | 4.0 | 9.0 | 0.00 | 0.00 | 0.00 | 32 | 1010.8 |
| 20260506132805 | 68 | 151 | 3.0 | 5.0 | 0.00 | 0.00 | 0.00 | 31 | 1011.0 |
| 20260506132307 | 68 | 136 | 3.0 | 7.0 | 0.00 | 0.00 | 0.00 | 31 | 1011.2 |
| 20260506131304 | 68 | 218 | 2.0 | 5.0 | 0.00 | 0.00 | 0.00 | 30 | 1011.2 |
| 20260506130804 | 68 | 226 | 4.0 | 7.0 | 0.00 | 0.00 | 0.00 | 33 | 1011.4 |
| 20260506130304 | 67 | 149 | 4.0 | 8.0 | 0.00 | 0.00 | 0.00 | 33 | 1011.2 |
| 20260506125804 | 67 | 158 | 3.0 | 7.0 | 0.00 | 0.00 | 0.00 | 34 | 1011.0 |
| 20260506125306 | 66 | 91 | 2.0 | 6.0 | 0.00 | 0.00 | 0.00 | 33 | 1011.1 |
| 20260506124304 | 67 | 159 | 3.0 | 9.0 | 0.00 | 0.00 | 0.00 | 33 | 1011.1 |
| 20260506123805 | 67 | 304 | 2.0 | 7.0 | 0.00 | 0.00 | 0.00 | 33 | 1011.1 |
| 20260506123304 | 67 | 255 | 3.0 | 7.0 | 0.00 | 0.00 | 0.00 | 33 | 1011.0 |
| 20260506122804 | 67 | 249 | 5.0 | 10.0 | 0.00 | 0.00 | 0.00 | 34 | 1011.0 |
| 20260506122306 | 66 | 224 | 3.0 | 7.0 | 0.00 | 0.00 | 0.00 | 34 | 1011.2 |
| 20260506121305 | 67 | 232 | 6.0 | 9.0 | 0.00 | 0.00 | 0.00 | 32 | 1011.2 |
| 20260506120805 | 68 | 228 | 4.0 | 8.0 | 0.00 | 0.00 | 0.00 | 34 | 1011.2 |
| 20260506120305 | 67 | 222 | 3.0 | 7.0 | 0.00 | 0.00 | 0.00 | 33 | 1011.2 |
| 20260506115804 | 68 | 239 | 1.0 | 6.0 | 0.00 | 0.00 | 0.00 | 33 | 1011.4 |
| 20260506115307 | 66 | 310 | 2.0 | 5.0 | 0.00 | 0.00 | 0.00 | 34 | 1011.6 |
| 20260506114804 | 66 | 273 | 3.0 | 10.0 | 0.00 | 0.00 | 0.00 | 35 | 1011.6 |
| 20260506114304 | 66 | 230 | 3.0 | 7.0 | 0.00 | 0.00 | 0.00 | 35 | 1011.6 |
| 20260506113804 | 66 | 214 | 3.0 | 7.0 | 0.00 | 0.00 | 0.00 | 35 | 1011.5 |
| 20260506112804 | 64 | 287 | 2.0 | 7.0 | 0.00 | 0.00 | 0.00 | 36 | 1011.7 |
| 20260506112306 | 67 | 243 | 5.0 | 8.0 | 0.00 | 0.00 | 0.00 | 33 | 1011.6 |
| 20260506111804 | 66 | 276 | 2.0 | 6.0 | 0.00 | 0.00 | 0.00 | 34 | 1011.6 |
| 20260506111304 | 65 | 238 | 4.0 | 8.0 | 0.00 | 0.00 | 0.00 | 35 | 1011.8 |
| 20260506110805 | 63 | 26 | 1.0 | 5.0 | 0.00 | 0.00 | 0.00 | 35 | 1012.2 |
| 20260506110305 | 64 | 54 | 2.0 | 7.0 | 0.00 | 0.00 | 0.00 | 33 | 1011.9 |
| 20260506105305 | 65 | 122 | 1.0 | 5.0 | 0.00 | 0.00 | 0.00 | 31 | 1012.0 |
| 20260506104805 | 65 | 150 | 3.0 | 6.0 | 0.00 | 0.00 | 0.00 | 32 | 1012.1 |
| 20260506104305 | 64 | 226 | 2.0 | 6.0 | 0.00 | 0.00 | 0.00 | 33 | 1012.0 |
| 20260506103804 | 64 | 223 | 3.0 | 5.0 | 0.00 | 0.00 | 0.00 | 32 | 1012.2 |
| 20260506103304 | 64 | 189 | 2.0 | 5.0 | 0.00 | 0.00 | 0.00 | 34 | 1012.0 |
| 20260506102804 | 64 | 230 | 3.0 | 5.0 | 0.00 | 0.00 | 0.00 | 33 | 1012.0 |
| 20260506101804 | 66 | 149 | 2.0 | 5.0 | 0.00 | 0.00 | 0.00 | 32 | 1012.0 |
| 20260506101304 | 65 | 133 | 0.0 | 2.0 | 0.00 | 0.00 | 0.00 | 34 | 1012.1 |
| 20260506100805 | 63 | 77 | 0.0 | 2.0 | 0.00 | 0.00 | 0.00 | 36 | 1012.4 |
| 20260506100304 | 62 | 111 | 1.0 | 3.0 | 0.00 | 0.00 | 0.00 | 37 | 1012.4 |
| 20260506095805 | 61 | 139 | 1.0 | 5.0 | 0.00 | 0.00 | 0.00 | 38 | 1012.6 |
| 20260506095305 | 61 | 156 | 2.0 | 3.0 | 0.00 | 0.00 | 0.00 | 40 | 1012.8 |
| 20260506094804 | 60 | 277 | 1.0 | 2.0 | 0.00 | 0.00 | 0.00 | 40 | 1012.5 |
| 20260506094305 | 61 | 53 | 2.0 | 5.0 | 0.00 | 0.00 | 0.00 | 36 | 1012.7 |
| 20260506093804 | 63 | 81 | 1.0 | 5.0 | 0.00 | 0.00 | 0.00 | 37 | 1012.4 |
| 20260506093305 | 63 | 65 | 1.0 | 3.0 | 0.00 | 0.00 | 0.00 | 38 | 1012.3 |
| 20260506092805 | 63 | 23 | 1.0 | 5.0 | 0.00 | 0.00 | 0.00 | 40 | 1012.2 |
| 20260506091804 | 62 | 40 | 1.0 | 2.0 | 0.00 | 0.00 | 0.00 | 44 | 1012.1 |
| 20260506091304 | 62 | 186 | 2.0 | 3.0 | 0.00 | 0.00 | 0.00 | 46 | 1012.2 |
| 20260506090305 | 62 | 261 | 1.0 | 2.0 | 0.00 | 0.00 | 0.00 | 46 | 1012.2 |
| 20260506085804 | 61 | 7 | 0.0 | 2.0 | 0.00 | 0.00 | 0.00 | 47 | 1012.1 |
| 20260506085306 | 60 | 75 | 2.0 | 5.0 | 0.00 | 0.00 | 0.00 | 49 | 1012.3 |
| 20260506084805 | 60 | 246 | 2.0 | 3.0 | 0.00 | 0.00 | 0.00 | 52 | 1012.4 |
| 20260506084304 | 59 | 135 | 3.0 | 5.0 | 0.00 | 0.00 | 0.00 | 55 | 1012.4 |
| 20260506083305 | 58 | 65 | 2.0 | 5.0 | 0.00 | 0.00 | 0.00 | 58 | 1012.6 |
| 20260506082805 | 58 | 156 | 2.0 | 5.0 | 0.00 | 0.00 | 0.00 | 58 | 1012.6 |
| 20260506082305 | 58 | 73 | 2.0 | 6.0 | 0.00 | 0.00 | 0.00 | 59 | 1012.6 |
| 20260506081804 | 57 | 99 | 2.0 | 5.0 | 0.00 | 0.00 | 0.00 | 59 | 1012.6 |
| 20260506081304 | 56 | 86 | 2.0 | 7.0 | 0.00 | 0.00 | 0.00 | 60 | 1012.7 |
| 20260506080304 | 57 | 66 | 3.0 | 5.0 | 0.00 | 0.00 | 0.00 | 60 | 1012.7 |
| 20260506073304 | 55 | 104 | 1.0 | 3.0 | 0.00 | 0.00 | 0.00 | 66 | 1012.9 |
| 20260506072804 | 54 | 85 | 2.0 | 3.0 | 0.00 | 0.00 | 0.00 | 71 | 1012.6 |
| 20260506072306 | 53 | 50 | 1.0 | 3.0 | 0.00 | 0.00 | 0.00 | 77 | 1013.0 |
| 20260506071805 | 52 | 14 | 1.0 | 2.0 | 0.00 | 0.00 | 0.00 | 84 | 1013.1 |
| 20260506071304 | 50 | 108 | 0.0 | 1.0 | 0.00 | 0.00 | 0.00 | 92 | 1013.3 |
| 20260506070804 | 49 | 6 | 0.0 | 3.0 | 0.00 | 0.00 | 0.00 | 94 | 1013.4 |
| 20260506061805 | 41 | 319 | 0.0 | 1.0 | 0.00 | 0.00 | 0.00 | 94 | 1013.5 |
| 20260506060804 | 41 | 337 | 1.0 | 2.0 | 0.00 | 0.00 | 0.00 | 94 | 1013.1 |
| 20260506060304 | 41 | 331 | 1.0 | 1.0 | 0.00 | 0.00 | 0.00 | 94 | 1013.3 |
| 20260506051305 | 42 | 61 | 1.0 | 3.0 | 0.00 | 0.00 | 0.00 | 89 | 1012.5 |
| 20260506050805 | 41 | 28 | 2.0 | 6.0 | 0.00 | 0.00 | 0.00 | 86 | 1012.6 |
| 20260506044804 | 39 | 317 | 0.0 | 0.0 | 0.00 | 0.00 | 0.00 | 84 | 1012.6 |
| 20260506044305 | 39 | 268 | 0.0 | 0.0 | 0.00 | 0.00 | 0.00 | 83 | 1012.5 |
| 20260506043804 | 40 | 163 | 0.0 | 0.0 | 0.00 | 0.00 | 0.00 | 83 | 1012.4 |
| 20260506042804 | 42 | 237 | 2.0 | 3.0 | 0.00 | 0.00 | 0.00 | 77 | 1012.3 |
| 20260506042305 | 42 | 42 | 1.0 | 2.0 | 0.00 | 0.00 | 0.00 | 79 | 1012.4 |
| 20260506041804 | 42 | 9 | 1.0 | 2.0 | 0.00 | 0.00 | 0.00 | 79 | 1012.6 |
| 20260506040304 | 42 | 341 | 2.0 | 3.0 | 0.00 | 0.00 | 0.00 | 80 | 1012.2 |
| 20260506035804 | 41 | 28 | 1.0 | 2.0 | 0.00 | 0.00 | 0.00 | 83 | 1012.6 |
| 20260506035306 | 40 | 31 | 0.0 | 2.0 | 0.00 | 0.00 | 0.00 | 84 | 1012.4 |
| 20260506034805 | 40 | 320 | 2.0 | 3.0 | 0.00 | 0.00 | 0.00 | 83 | 1012.6 |
| 20260506034305 | 40 | 357 | 1.0 | 3.0 | 0.00 | 0.00 | 0.00 | 83 | 1012.7 |
| 20260506033304 | 41 | 327 | 2.0 | 3.0 | 0.00 | 0.00 | 0.00 | 80 | 1012.3 |
| 20260506032804 | 44 | 322 | 2.0 | 3.0 | 0.00 | 0.00 | 0.00 | 76 | 1012.3 |
| 20260506032306 | 45 | 19 | 1.0 | 2.0 | 0.00 | 0.00 | 0.00 | 74 | 1012.6 |
| 20260506031304 | 44 | 64 | 1.0 | 2.0 | 0.00 | 0.00 | 0.00 | 78 | 1012.6 |
| 20260506030305 | 45 | 163 | 0.0 | 1.0 | 0.00 | 0.00 | 0.00 | 77 | 1012.2 |
| 20260506025804 | 45 | 99 | 0.0 | 3.0 | 0.00 | 0.00 | 0.00 | 77 | 1012.1 |
| 20260506025306 | 44 | 125 | 0.0 | 8.0 | 0.00 | 0.00 | 0.00 | 77 | 1012.3 |
| 20260506024305 | 43 | 127 | 4.0 | 6.0 | 0.00 | 0.00 | 0.00 | 77 | 1012.3 |
| 20260506023804 | 44 | 151 | 1.0 | 2.0 | 0.00 | 0.00 | 0.00 | 76 | 1012.3 |
| 20260506023304 | 43 | 139 | 0.0 | 0.0 | 0.00 | 0.00 | 0.00 | 76 | 1012.8 |
| 20260506022805 | 43 | 86 | 0.0 | 0.0 | 0.00 | 0.00 | 0.00 | 77 | 1012.7 |
| 20260506022306 | 43 | 147 | 0.0 | 0.0 | 0.00 | 0.00 | 0.00 | 76 | 1012.6 |
| 20260506021805 | 42 | 2 | 0.0 | 0.0 | 0.00 | 0.00 | 0.00 | 75 | 1012.7 |
| 20260506021304 | 43 | 2 | 0.0 | 0.0 | 0.00 | 0.00 | 0.00 | 75 | 1012.4 |
| 20260506020804 | 43 | 3 | 0.0 | 0.0 | 0.00 | 0.00 | 0.00 | 74 | 1012.4 |
| 20260506020305 | 44 | 331 | 0.0 | 0.0 | 0.00 | 0.00 | 0.00 | 73 | 1012.3 |
| 20260506015306 | 44 | 5 | 0.0 | 2.0 | 0.00 | 0.00 | 0.00 | 72 | 1012.4 |
| 20260506014305 | 45 | 329 | 0.0 | 1.0 | 0.00 | 0.00 | 0.00 | 70 | 1012.1 |
| 20260506013804 | 45 | 326 | 0.0 | 2.0 | 0.00 | 0.00 | 0.00 | 70 | 1011.9 |
| 20260506013304 | 45 | 326 | 1.0 | 2.0 | 0.00 | 0.00 | 0.00 | 70 | 1012.0 |
| 20260506012308 | 45 | 269 | 0.0 | 0.0 | 0.00 | 0.00 | 0.00 | 74 | 1012.2 |
| 20260506011804 | 45 | 269 | 0.0 | 0.0 | 0.00 | 0.00 | 0.00 | 74 | 1012.4 |
| 20260506011304 | 46 | 313 | 0.0 | 0.0 | 0.00 | 0.00 | 0.00 | 73 | 1012.4 |
| 20260506010805 | 46 | 313 | 0.0 | 0.0 | 0.00 | 0.00 | 0.00 | 72 | 1012.3 |
| 20260506005804 | 47 | 313 | 0.0 | 0.0 | 0.00 | 0.00 | 0.00 | 69 | 1012.1 |
| 20260506004805 | 48 | 349 | 0.0 | 0.0 | 0.00 | 0.00 | 0.00 | 67 | 1012.4 |
| 20260506004305 | 48 | 23 | 0.0 | 0.0 | 0.00 | 0.00 | 0.00 | 66 | 1012.6 |
| 20260506003804 | 49 | 48 | 0.0 | 0.0 | 0.00 | 0.00 | 0.00 | 65 | 1012.3 |
| 20260506003305 | 50 | 351 | 0.0 | 0.0 | 0.00 | 0.00 | 0.00 | 62 | 1012.3 |
| 20260506002805 | 51 | 348 | 0.0 | 0.0 | 0.00 | 0.00 | 0.00 | 58 | 1012.3 |
| 20260506002306 | 51 | 9 | 0.0 | 0.0 | 0.00 | 0.00 | 0.00 | 56 | 1012.2 |
| 20260506001805 | 51 | 356 | 0.0 | 0.0 | 0.00 | 0.00 | 0.00 | 56 | 1012.2 |
| 20260506001304 | 51 | 68 | 0.0 | 1.0 | 0.00 | 0.00 | 0.00 | 58 | 1012.5 |
| 20260506000805 | 50 | 81 | 0.0 | 1.0 | 0.00 | 0.00 | 0.00 | 60 | 1012.5 |
| 20260506000305 | 50 | 72 | 0.0 | 1.0 | 0.00 | 0.00 | 0.00 | 62 | 1012.6 |
| 20260505235305 | 50 | 36 | 1.0 | 2.0 | 0.00 | 0.00 | 0.00 | 64 | 1012.6 |
| 20260505234805 | 50 | 204 | 0.0 | 0.0 | 0.00 | 0.00 | 0.00 | 59 | 1012.9 |
| 20260505234304 | 50 | 203 | 0.0 | 0.0 | 0.00 | 0.00 | 0.00 | 59 | 1012.7 |
| 20260505232805 | 52 | 60 | 0.0 | 0.0 | 0.00 | 0.00 | 0.00 | 54 | 1012.7 |
| 20260505232305 | 52 | 45 | 0.0 | 0.0 | 0.00 | 0.00 | 0.00 | 53 | 1012.8 |
| 20260505231804 | 52 | 358 | 0.0 | 1.0 | 0.00 | 0.00 | 0.00 | 53 | 1012.8 |
| 20260505231304 | 52 | 40 | 0.0 | 1.0 | 0.00 | 0.00 | 0.00 | 54 | 1012.8 |
| 20260505230804 | 52 | 40 | 0.0 | 1.0 | 0.00 | 0.00 | 0.00 | 54 | 1012.7 |
| 20260505230305 | 52 | 51 | 0.0 | 1.0 | 0.00 | 0.00 | 0.00 | 55 | 1012.4 |
| 20260505225804 | 52 | 40 | 1.0 | 1.0 | 0.00 | 0.00 | 0.00 | 54 | 1012.4 |
| 20260505225306 | 52 | 43 | 0.0 | 1.0 | 0.00 | 0.00 | 0.00 | 55 | 1012.6 |
| 20260505224805 | 52 | 60 | 0.0 | 1.0 | 0.00 | 0.00 | 0.00 | 55 | 1012.7 |
| 20260505224304 | 52 | 66 | 1.0 | 2.0 | 0.00 | 0.00 | 0.00 | 55 | 1012.7 |
| 20260505223804 | 52 | 49 | 0.0 | 2.0 | 0.00 | 0.00 | 0.00 | 55 | 1012.7 |
| 20260505223305 | 51 | 42 | 0.0 | 0.0 | 0.00 | 0.00 | 0.00 | 55 | 1012.5 |
| 20260505222306 | 51 | 90 | 0.0 | 0.0 | 0.00 | 0.00 | 0.00 | 57 | 1013.0 |
| 20260505221804 | 51 | 91 | 0.0 | 0.0 | 0.00 | 0.00 | 0.00 | 57 | 1012.9 |
| 20260505221304 | 51 | 357 | 0.0 | 0.0 | 0.00 | 0.00 | 0.00 | 57 | 1012.8 |
| 20260505220804 | 51 | 322 | 0.0 | 1.0 | 0.00 | 0.00 | 0.00 | 56 | 1012.7 |
| 20260505220305 | 50 | 322 | 0.0 | 1.0 | 0.00 | 0.00 | 0.00 | 56 | 1012.7 |
| 20260505215805 | 51 | 275 | 0.0 | 0.0 | 0.00 | 0.00 | 0.00 | 57 | 1012.8 |
| 20260505215305 | 51 | 272 | 0.0 | 1.0 | 0.00 | 0.00 | 0.00 | 56 | 1012.8 |
| 20260505214805 | 51 | 294 | 1.0 | 3.0 | 0.00 | 0.00 | 0.00 | 55 | 1012.7 |
| 20260505214304 | 51 | 344 | 0.0 | 1.0 | 0.00 | 0.00 | 0.00 | 55 | 1012.7 |
| 20260505212804 | 52 | 331 | 1.0 | 2.0 | 0.00 | 0.00 | 0.00 | 53 | 1012.6 |
| 20260505212305 | 53 | 333 | 1.0 | 2.0 | 0.00 | 0.00 | 0.00 | 53 | 1012.5 |
| 20260505211805 | 53 | 355 | 2.0 | 3.0 | 0.00 | 0.00 | 0.00 | 52 | 1012.3 |
| 20260505211305 | 53 | 338 | 2.0 | 3.0 | 0.00 | 0.00 | 0.00 | 52 | 1012.7 |
| 20260505210804 | 53 | 319 | 1.0 | 2.0 | 0.00 | 0.00 | 0.00 | 52 | 1012.4 |
| 20260505210305 | 53 | 317 | 2.0 | 3.0 | 0.00 | 0.00 | 0.00 | 51 | 1012.5 |
| 20260505205804 | 53 | 318 | 2.0 | 3.0 | 0.00 | 0.00 | 0.00 | 51 | 1012.5 |
| 20260505205305 | 53 | 328 | 1.0 | 2.0 | 0.00 | 0.00 | 0.00 | 50 | 1012.5 |
| 20260505204804 | 54 | 334 | 1.0 | 2.0 | 0.00 | 0.00 | 0.00 | 49 | 1012.6 |
| 20260505204304 | 54 | 2 | 1.0 | 2.0 | 0.00 | 0.00 | 0.00 | 48 | 1012.6 |
| 20260505203805 | 54 | 29 | 0.0 | 2.0 | 0.00 | 0.00 | 0.00 | 48 | 1012.6 |
| 20260505203304 | 54 | 9 | 1.0 | 2.0 | 0.00 | 0.00 | 0.00 | 47 | 1012.6 |
| 20260505202805 | 54 | 19 | 1.0 | 2.0 | 0.00 | 0.00 | 0.00 | 47 | 1012.7 |
| 20260505202306 | 55 | 11 | 1.0 | 3.0 | 0.00 | 0.00 | 0.00 | 46 | 1012.6 |
| 20260505201804 | 54 | 5 | 2.0 | 2.0 | 0.00 | 0.00 | 0.00 | 46 | 1012.4 |
| 20260505200805 | 54 | 329 | 1.0 | 3.0 | 0.00 | 0.00 | 0.00 | 50 | 1012.4 |
| 20260505200304 | 54 | 322 | 2.0 | 3.0 | 0.00 | 0.00 | 0.00 | 50 | 1012.6 |
| 20260505195804 | 54 | 330 | 2.0 | 3.0 | 0.00 | 0.00 | 0.00 | 50 | 1012.4 |
| 20260505194805 | 55 | 322 | 1.0 | 2.0 | 0.00 | 0.00 | 0.00 | 50 | 1012.1 |